Weather in Dammam

Saudi Arabia     26°21′16″N   49°58′35″E
В апреле 2022 года жителям России запретили посещать сайт meteo.paraplan.net по решению Генеральной прокуратуры. Аудитория сайта уменьшилась в 10 раз. Владельцы сайта не видят смысла в поддержке погодного сервера в таких условиях. Сайт будет закрыт в октябре.
temp.,
°C
wind,
m/s
gust,
m/s
humid.,
%
clouds,
%
prec.,
mm/h
press.,
hPa
HPBL,
m
29 september, thu
thu2900:00+27nnw33340 0.0 100527
03:00+26wnw44310 0.0 100534
06:00+26wnw45280 0.0 100646
09:00+33nw67150 0.0 1007595
12:00+38nw6780 0.0 10062252
15:00+37n77110 0.0 10042101
18:00+29nne57360 0.0 100691
21:00+28ne34490 0.0 100740
30 september, fri
fri3000:00+25nne11560 0.0 100629
03:00+24nne11520 0.0 100629
06:00+25w44440 0.0 100836
09:00+32wnw33220 0.0 1009576
12:00+36nw22150 0.0 10081531
15:00+36ene54170 0.0 10061135
18:00+29ne44410 0.0 100753
21:00+28ne23490 0.0 100933
1 october, sat
sat100:00+26n11540 0.0 100827
03:00+26nw33470 0.0 100728
06:00+26wnw33320 0.0 100928
09:00+33nw34203 0.0 1010453
12:00+38n33145 0.0 10071406
15:00+38ne55173 0.0 10061149
18:00+31nne44364 0.0 100632
21:00+28sse01390 0.0 100611
2 october, sun
sun200:00+29sw33371 0.0 100517
03:00+28w44320 0.0 100535
06:00+28w44240 0.0 100636
09:00+35nw57130 0.0 1006439
12:00+40n77170 0.0 10041627
15:00+38n88200 0.0 10031154
18:00+31nne45400 0.0 100448
21:00+28nne33510 0.0 100525
3 october, mon
mon300:00+26e11580 0.0 100420
03:00+26w22490 0.0 100423
06:00+27nw33350 0.0 100623
09:00+35n23210 0.0 1007464
12:00+38ene44170 0.0 10061227
15:00+37ene54190 0.0 1005874
18:00+30ene44430 0.0 100629
21:00+29e33580 0.0 100726